Find Starlink 11548

NORAD ID: 62829 Int'l Des: 2025-019 Owner: SPXS Country: US Constellation: starlink operational
LEOCIRCULAR

实时位置

正在加载3D地球...

关于 Starlink 11548

正在加载描述...

即将过境

Passes for default location (London). Set your location on the main map for personalized predictions.

高度历史

Loading altitude history...

两行轨道根数

1 62829U 25019A 26127.69260917 .00201260 00000-0 15246-2 0 9993
2 62829 42.9980 310.0440 0001895 244.8025 115.2646 15.70989914 73166
Epoch: May 7, 2026 • Age: 11 hours

当前状态

高度 355.3 km
速度 7.70 km/s
星下点 9.83°N, 41.56°E
发射日期 Jan 27, 2025
运行时间 1.2 years
类型 internet

技术详情

分类 Payload
质量 960.00 kg
干质量 910.00 kg
总质量 960.00 kg
长度 0.30 m
直径 4.10 m
跨度 29.00 m
形状 Box + pan
制造商 SPXS
平台类型 Starlink V2MD
阶段状态 In Orbit
所有者/国家 SPXS/US

Most Searched